Home   Weather   Timișoara   Past weeks

Flag for Romania Past Weather in Timișoara, Romania — Yesterday and Last 2 Weeks

Now
18 °F

Ice fog.


Feels Like: 12 °F
Forecast: 20 / 28 °F
Wind: 3 mph from Southeast

Location: Timisoara Airport

Current Time: Jan 20, 2017 at 3:58:54 am

Latest Report: Jan 20, 2017 at 3:30 am


Visibility: 2 mi

Pressure: 30.63 "Hg

Humidity: 93%

Dew Point: 16 °F

Location of TimișoaraLocation

Past Weather in Timișoara — Graph

°F

Timișoara Temperature Yesterday

Maximum temperature yesterday: 34 °F (at 12:30 pm)
Minimum temperature yesterday: 21 °F (at 11:00 pm)
Average temperature yesterday: 29 °F

High & Low Weather Summary for the Past Weeks

 TemperatureHumidityPressure
High39 °F (Jan 13, 10:30 pm)93% (Jan 5, 3:00 am)30.63 "Hg (Jan 5, 3:00 am)
Low3 °F (Jan 8, 2:00 am)35% (Jan 8, 3:30 pm)29.33 "Hg (Jan 13, 10:30 pm)
Average23 °F79%30.10 "Hg
* Reported Jan 5 3:00 am — Jan 20 3:00 am, Timișoara, Weather by CustomWeather, © 2017

Note: Actual official high and low records may vary slightly from our data, if they occured in-between our weather recording intervals... More about our weather records

Advertising

Timișoara Weather History for the Previous 24 Hours

Scroll right to see more
 ConditionsComfort  
Time TempWeatherWind HumidityBarometerVisibility
3:00 am
Fri, Jan 20
18 °FIce fog.1 mph93%30.63 "Hg2 mi
2:30 am18 °FIce fog.2 mph93%30.63 "Hg2 mi
2:00 am19 °FIce fog.2 mph93%30.63 "Hg2 mi
1:30 am19 °FIce fog.2 mph93%30.63 "Hg2 mi
1:00 am19 °FIce fog.2 mph86%30.63 "Hg2 mi
12:30 am19 °FIce fog.3 mph93%30.63 "Hg1 mi
12:00 am19 °FIce fog.5 mph93%30.63 "Hg2 mi
11:30 pm
Thu, Jan 19
21 °FIce fog.3 mph93%30.63 "Hg2 mi
11:00 pm21 °FIce fog.3 mph93%30.60 "Hg2 mi
10:30 pm23 °FIce fog.1 mph93%30.60 "Hg2 mi
10:00 pm25 °FIce fog.No wind86%30.60 "Hg2 mi
9:30 pm25 °FIce fog.No wind93%30.60 "Hg3 mi
9:00 pm25 °FIce fog.3 mph93%30.60 "Hg3 mi
8:30 pm27 °FClear.3 mph86%30.60 "Hg4 mi
8:00 pm27 °FClear.3 mph86%30.60 "Hg5 mi
7:30 pm27 °FClear.3 mph93%30.60 "Hg5 mi
7:00 pm27 °FPassing clouds.3 mph86%30.60 "Hg4 mi
6:30 pm27 °FClear.3 mph93%30.60 "Hg10 mi
6:00 pm28 °FClear.5 mph86%30.57 "Hg10 mi
5:30 pm28 °FClear.8 mph80%30.57 "Hg10 mi
5:00 pm30 °FSunny.9 mph80%30.57 "Hg10 mi
4:30 pm32 °FSunny.12 mph69%30.57 "Hg10 mi
4:00 pm34 °FSunny.12 mph65%30.57 "Hg10 mi
3:30 pm34 °FSunny.13 mph65%30.57 "Hg10 mi
3:00 pm34 °FPassing clouds.10 mph70%30.57 "HgN/A
2:30 pm34 °FPassing clouds.8 mph60%30.57 "HgN/A
2:00 pm34 °FPassing clouds.7 mph56%30.57 "HgN/A
1:30 pm34 °FSunny.10 mph56%30.57 "Hg10 mi
1:00 pm34 °FSunny.13 mph56%30.57 "Hg10 mi
12:30 pm34 °FSunny.10 mph60%30.57 "Hg10 mi
12:00 pm32 °FSunny.10 mph64%30.57 "Hg10 mi
11:30 am32 °FSunny.8 mph64%30.57 "Hg10 mi
11:00 am32 °FSunny.6 mph64%30.57 "Hg10 mi
10:30 am32 °FSunny.2 mph55%30.57 "Hg10 mi
10:00 am32 °FSunny.5 mph55%30.57 "Hg10 mi
9:30 am30 °FSunny.5 mph69%30.54 "Hg10 mi
9:00 am27 °FSunny.3 mph93%30.54 "Hg10 mi
8:30 am27 °FSunny.3 mph86%30.54 "Hg10 mi
8:00 am27 °FClear.2 mph86%30.54 "Hg10 mi
7:30 am27 °FClear.2 mph93%30.51 "Hg10 mi
7:00 am28 °FClear.1 mph80%30.51 "Hg10 mi
6:30 am28 °FClear.2 mph86%30.51 "Hg10 mi
6:00 am27 °FClear.3 mph93%30.51 "Hg10 mi
5:30 am27 °FClear.2 mph93%30.51 "Hg10 mi
5:00 am27 °FClear.No wind93%30.51 "Hg10 mi
4:30 am27 °FClear.2 mph93%30.51 "Hg10 mi
4:00 am27 °FClear.3 mph93%30.51 "Hg5 mi
3:30 am27 °FIce fog.3 mph93%30.51 "Hg3 mi
3:00 am27 °FIce fog.5 mph93%30.48 "Hg3 mi
Weather by CustomWeather, © 2017

See weather overviewHow to use our weather pages